Weather History for Lawrenceville, IL

Change the Weather History Date:

Thursday, February 14, 2013

  Actual Average Record
Temperature  
Mean Temperature 45 °F 35 °F  
Max Temperature 56 °F 44 °F 57 °F (2001)
Min Temperature 33 °F 27 °F 12 °F (2014)
Degree Days  
Heating Degree Days 20 30  
Month to date heating degree days 402 440  
Since 1 July heating degree days 3256 3291  
Cooling Degree Days 0 0  
Month to date cooling degree days 0 0  
Year to date cooling degree days 0 0  
Moisture  
Dew Point 33 °F    
Average Humidity 71    
Maximum Humidity 96    
Minimum Humidity 46    
Precipitation  
Precipitation 0.00 in 0.08 in 1.33 in (1989)
Month to date precipitation 0.54 1.09  
Year to date precipitation 6.95 3.47  
Sea Level Pressure  
Sea Level Pressure 29.93 in    
Wind  
Wind Speed 10 mph (SW)    
Max Wind Speed 21 mph    
Max Gust Speed 26 mph    
Visibility 7 miles    
Events      
T = Trace of Precipitation, MM = Missing Value Source: NWS Daily Summary

Daily Weather History Graph

Daily Weather History Graph

Search for Another Location

Airport:

Trip Planner

Search our weather history database for the weather conditions in past years. The results will help you decide how hot, cold, wet, or windy it might be!

Date:

Astronomy

Feb. 14, 2013 Rise Set
Actual Time 6:42 AM CST 5:27 PM CST
Civil Twilight 6:15 AM CST 5:54 PM CST
Nautical Twilight 5:43 AM CST 6:25 PM CST
Astronomical Twilight 5:13 AM CST 6:56 PM CST
Moon 8:47 AM CST (2/14) 10:25 PM CST (2/14)
Length of Visible Light 11h 39m
Length of Day
10h 44m
Waxing Crescent, 22% of the Moon is Illuminated
Feb 14
Waxing Crescent
Feb 17
First Quarter
Feb 25
Full
Mar 4
Last Quarter
Mar 11
New

Hourly Weather History & Observations

Time (CST) Temp. Windchill Dew Point Humidity Pressure Visibility Wind Dir Wind Speed Gust Speed Precip Events Conditions
12:53 AM 36.0 °F 29.6 °F 32.0 °F 86% 29.90 in 6.0 mi SSW 8.1 mph - N/A   Clear
1:53 AM 35.1 °F 28.6 °F 32.0 °F 89% 29.89 in 4.0 mi SSW 8.1 mph - N/A   Clear
2:53 AM 33.1 °F 26.1 °F 30.9 °F 92% 29.88 in 3.0 mi SSW 8.1 mph - N/A   Clear
3:53 AM 34.0 °F 28.0 °F 32.0 °F 92% 29.88 in 3.0 mi SSW 6.9 mph - N/A   Clear
4:53 AM 35.1 °F 29.3 °F 33.1 °F 92% 29.88 in 4.0 mi South 6.9 mph - N/A   Clear
5:53 AM 34.0 °F 27.2 °F 32.0 °F 92% 29.87 in 3.0 mi South 8.1 mph - N/A   Partly Cloudy
6:53 AM 35.1 °F 27.4 °F 33.1 °F 92% 29.88 in 2.5 mi South 10.4 mph - N/A   Clear
7:48 AM 37.4 °F 31.4 °F 33.8 °F 87% 29.88 in 3.0 mi South 8.1 mph - N/A   Partly Cloudy
7:53 AM 37.0 °F 30.4 °F 35.1 °F 93% 29.88 in 3.0 mi South 9.2 mph - N/A   Partly Cloudy
8:53 AM 41.0 °F 33.9 °F 36.0 °F 82% 29.89 in 6.0 mi SSW 12.7 mph - N/A   Haze
9:53 AM 45.0 °F 38.5 °F 36.0 °F 71% 29.90 in 7.0 mi SW 13.8 mph - N/A   Partly Cloudy
10:53 AM 48.9 °F - 35.1 °F 59% 29.90 in 9.0 mi WSW 15.0 mph - N/A   Clear
11:53 AM 51.1 °F - 36.0 °F 56% 29.90 in 10.0 mi WSW 15.0 mph - N/A   Clear
12:53 PM 54.0 °F - 35.1 °F 49% 29.89 in 10.0 mi WSW 13.8 mph - N/A   Clear
1:53 PM 55.0 °F - 35.1 °F 47% 29.89 in 10.0 mi West 18.4 mph - N/A   Partly Cloudy
2:53 PM 53.1 °F - 34.0 °F 48% 29.91 in 10.0 mi West 12.7 mph 21.9 mph N/A   Scattered Clouds
3:53 PM 54.0 °F - 33.1 °F 45% 29.92 in 10.0 mi West 13.8 mph 21.9 mph N/A   Scattered Clouds
4:53 PM 51.1 °F - 33.1 °F 50% 29.95 in 10.0 mi WNW 12.7 mph - N/A   Clear
5:53 PM 45.0 °F 41.2 °F 33.1 °F 63% 29.98 in 10.0 mi WNW 6.9 mph - N/A   Clear
6:53 PM 44.1 °F 39.5 °F 33.1 °F 65% 30.00 in 10.0 mi NNW 8.1 mph - N/A   Clear
7:53 PM 42.1 °F 36.6 °F 33.1 °F 70% 30.03 in 10.0 mi North 9.2 mph - N/A   Scattered Clouds
8:53 PM 41.0 °F 33.9 °F 30.9 °F 67% 30.06 in 10.0 mi North 12.7 mph - N/A   Partly Cloudy
9:53 PM 37.9 °F 33.5 °F 30.9 °F 76% 30.05 in 9.0 mi NNE 5.8 mph - N/A   Clear
10:53 PM 37.0 °F - 30.9 °F 79% 30.04 in 10.0 mi Calm Calm - N/A   Clear
11:53 PM 34.0 °F 29.8 °F 30.0 °F 85% 30.05 in 8.0 mi SSW 4.6 mph - N/A   Partly Cloudy